Kenai, AK

11:15 AM AKST on November 17, 2017 (GMT -0900)
Kenai Municipal

Weather History for PAEN - June, 2013

Change the Weather History Date:

Saturday, June 29, 2013

  Actual Average Record
Temperature  
Mean Temperature 54 °F -  
Max Temperature 61 °F 60 °F 79 °F (1968)
Min Temperature 48 °F 45 °F 37 °F (1955)
Degree Days  
Heating Degree Days 10    
Growing Degree Days 4 (Base 50)    
Moisture  
Dew Point 49 °F    
Average Humidity 86    
Maximum Humidity 96    
Minimum Humidity 72    
Precipitation  
Precipitation 0.00 in - - ()
Sea Level Pressure  
Sea Level Pressure 30.09 in    
Wind  
Wind Speed 7 mph (SW)    
Max Wind Speed 13 mph    
Max Gust Speed -    
Visibility 10 miles    
Events      
Averages and records for this station are not official NWS values.
T = Trace of Precipitation, MM = Missing Value Source: NWS Daily Summary

Daily Weather History Graph

Daily Weather History Graph

Search for Another Location

Airport or City:

Trip Planner

Search our weather history database for the weather conditions in past years. The results will help you decide how hot, cold, wet, or windy it might be!

Date:

Astronomy

Jun. 29, 2013 Rise Set
Actual Time 4:39 AM AKDT 11:37 PM AKDT
Civil Twilight 2:38 AM AKDT 1:34 AM AKDT
Nautical Twilight Sun does not rise Sun does not rise
Astronomical Twilight Sun does not rise Sun does not rise
Moon 1:02 AM AKDT (6/29) 2:21 PM AKDT (6/29)
Length of Visible Light 22h 55m
Length of Day
18h 58m
Waning Gibbous, 54% of the Moon is Illuminated
Jun 29
Waning Gibbous
Jun 29
Last Quarter
Jul 7
New
Jul 15
First Quarter
Jul 22
Full

Hourly Weather History & Observations

Time (AKDT) Temp. Dew Point Humidity Pressure Visibility Wind Dir Wind Speed Gust Speed Precip Events Conditions
12:28 AM 50.0 °F 48.2 °F 94% 30.16 in 10.0 mi SSW 5.8 mph - N/A   Overcast
12:53 AM 50.0 °F 48.9 °F 96% 30.16 in 10.0 mi SSW 8.1 mph - N/A   Overcast
1:50 AM 51.8 °F 48.2 °F 88% 30.15 in 10.0 mi South 5.8 mph - N/A   Overcast
1:53 AM 51.1 °F 48.0 °F 89% 30.16 in 10.0 mi South 5.8 mph - N/A   Overcast
2:53 AM 51.1 °F 48.9 °F 92% 30.15 in 10.0 mi SSW 6.9 mph - N/A   Overcast
3:19 AM 51.8 °F 48.2 °F 88% 30.14 in 10.0 mi South 6.9 mph - N/A   Overcast
3:53 AM 50.0 °F 48.0 °F 93% 30.14 in 10.0 mi SSW 6.9 mph - N/A   Overcast
4:53 AM 51.1 °F 48.9 °F 92% 30.13 in 10.0 mi South 5.8 mph - N/A   Overcast
5:53 AM 51.1 °F 48.9 °F 92% 30.12 in 10.0 mi West 3.5 mph - N/A   Scattered Clouds
6:53 AM 51.1 °F 48.0 °F 89% 30.11 in 10.0 mi SW 6.9 mph - N/A   Partly Cloudy
7:53 AM 51.1 °F 48.9 °F 92% 30.11 in 10.0 mi SSW 3.5 mph - N/A   Overcast
8:10 AM 51.8 °F 48.2 °F 88% 30.10 in 10.0 mi SSW 4.6 mph - N/A   Overcast
8:53 AM 51.1 °F 48.9 °F 92% 30.11 in 10.0 mi SSW 4.6 mph - N/A   Overcast
9:53 AM 53.1 °F 48.9 °F 86% 30.10 in 10.0 mi South 5.8 mph - N/A   Overcast
10:53 AM 55.0 °F 48.9 °F 80% 30.09 in 10.0 mi SW 5.8 mph - N/A   Overcast
11:53 AM 55.9 °F 48.9 °F 77% 30.09 in 10.0 mi SW 5.8 mph - N/A   Overcast
12:53 PM 60.1 °F 51.1 °F 72% 30.07 in 10.0 mi WSW 4.6 mph - N/A   Mostly Cloudy
1:53 PM 60.1 °F 51.1 °F 72% 30.06 in 10.0 mi WSW 6.9 mph - N/A   Overcast
2:53 PM 61.0 °F 52.0 °F 72% 30.05 in 10.0 mi SW 5.8 mph - N/A   Overcast
3:53 PM 59.0 °F 51.1 °F 75% 30.05 in 10.0 mi SW 6.9 mph - N/A   Overcast
4:53 PM 60.1 °F 52.0 °F 75% 30.04 in 10.0 mi SW 6.9 mph - N/A   Mostly Cloudy
5:53 PM 59.0 °F 50.0 °F 72% 30.03 in 10.0 mi SSW 8.1 mph - N/A   Clear
6:53 PM 55.9 °F 50.0 °F 80% 30.03 in 10.0 mi SW 9.2 mph - N/A   Clear
7:53 PM 52.0 °F 48.9 °F 89% 30.04 in 10.0 mi SW 9.2 mph - N/A   Partly Cloudy
7:58 PM 51.8 °F 48.2 °F 88% 30.03 in 1.0 mi SW 11.5 mph - N/A   Overcast
8:46 PM 50.0 °F 48.2 °F 94% 30.03 in 10.0 mi SSW 8.1 mph - N/A   Scattered Clouds
8:53 PM 51.1 °F 48.9 °F 92% 30.04 in 10.0 mi SSW 9.2 mph - N/A   Scattered Clouds
9:53 PM 50.0 °F 48.0 °F 93% 30.04 in 10.0 mi SSW 11.5 mph - N/A   Mostly Cloudy
10:53 PM 48.9 °F 46.9 °F 93% 30.04 in 10.0 mi SSW 12.7 mph - N/A   Overcast
11:53 PM 51.1 °F 46.9 °F 86% 30.04 in 10.0 mi SSW 11.5 mph - N/A   Overcast